| time (UTC) | temp C | wind direction | speed KPH | gust KPH | rain 1hr cm | rain 24hr cm | rain mn cm | humidity % | barometer mb |
| 20260905212045 | 20 | 306 | 0.0 | 1.6 | 0.00 | 0.05 | 0.05 | 69 | 1011.6 |
| 20260905211540 | 20 | 341 | 1.6 | 1.6 | 0.00 | 0.05 | 0.05 | 68 | 1011.6 |
| 20260905211036 | 21 | 18 | 9.7 | 12.9 | 0.00 | 0.05 | 0.05 | 66 | 1011.5 |
| 20260905210531 | 22 | 67 | 4.8 | 4.8 | 0.00 | 0.05 | 0.05 | 64 | 1011.2 |
| 20260905210026 | 22 | 243 | 1.6 | 3.2 | 0.00 | 0.05 | 0.05 | 65 | 1011.2 |
| 20260905205526 | 22 | 357 | 3.2 | 4.8 | 0.00 | 0.05 | 0.05 | 65 | 1011.3 |
| 20260905205025 | 21 | 349 | 1.6 | 3.2 | 0.00 | 0.05 | 0.05 | 66 | 1011.2 |
| 20260905204520 | 21 | 358 | 3.2 | 3.2 | 0.00 | 0.05 | 0.05 | 67 | 1011.2 |
| 20260905204015 | 21 | 59 | 0.0 | 1.6 | 0.00 | 0.05 | 0.05 | 68 | 1011.4 |
| 20260905203510 | 21 | 51 | 6.4 | 9.7 | 0.00 | 0.05 | 0.05 | 68 | 1011.3 |
| 20260905203005 | 21 | 44 | 3.2 | 6.4 | 0.00 | 0.05 | 0.05 | 69 | 1011.1 |
| 20260905202500 | 21 | 300 | 3.2 | 4.8 | 0.00 | 0.05 | 0.05 | 70 | 1011.1 |
| 20260905201955 | 21 | 344 | 3.2 | 6.4 | 0.00 | 0.05 | 0.05 | 70 | 1011.2 |
| 20260905201451 | 21 | 25 | 1.6 | 3.2 | 0.00 | 0.05 | 0.05 | 71 | 1011.3 |
| 20260905200950 | 21 | 309 | 0.0 | 1.6 | 0.00 | 0.05 | 0.05 | 72 | 1011.0 |
| 20260905200446 | 21 | 5 | 3.2 | 3.2 | 0.00 | 0.05 | 0.05 | 70 | 1011.2 |
| 20260905195945 | 21 | 27 | 3.2 | 3.2 | 0.00 | 0.05 | 0.05 | 70 | 1011.1 |
| 20260905195440 | 21 | 29 | 4.8 | 6.4 | 0.00 | 0.05 | 0.05 | 70 | 1011.2 |
| 20260905194936 | 21 | 139 | 1.6 | 3.2 | 0.00 | 0.05 | 0.05 | 71 | 1011.1 |
| 20260905194434 | 21 | 10 | 1.6 | 3.2 | 0.00 | 0.05 | 0.05 | 71 | 1011.2 |
| 20260905193929 | 21 | 53 | 6.4 | 6.4 | 0.00 | 0.05 | 0.05 | 70 | 1011.0 |
| 20260905193424 | 21 | 307 | 1.6 | 3.2 | 0.00 | 0.05 | 0.05 | 69 | 1011.2 |
| 20260905192919 | 21 | 52 | 6.4 | 6.4 | 0.00 | 0.05 | 0.05 | 70 | 1011.0 |
| 20260905192414 | 21 | 18 | 3.2 | 3.2 | 0.00 | 0.05 | 0.05 | 70 | 1010.9 |
| 20260905191915 | 21 | 26 | 4.8 | 4.8 | 0.00 | 0.05 | 0.05 | 70 | 1010.8 |
| 20260905191414 | 21 | 290 | 3.2 | 4.8 | 0.00 | 0.05 | 0.05 | 70 | 1010.9 |
| 20260905190908 | 21 | 27 | 1.6 | 1.6 | 0.00 | 0.05 | 0.05 | 70 | 1010.9 |
| 20260905190400 | 21 | 332 | 4.8 | 6.4 | 0.00 | 0.05 | 0.05 | 69 | 1010.9 |
| 20260905185859 | 21 | 41 | 4.8 | 4.8 | 0.00 | 0.05 | 0.05 | 70 | 1010.9 |
| 20260905185355 | 21 | 318 | 0.0 | 1.6 | 0.00 | 0.05 | 0.05 | 72 | 1010.9 |
| 20260905184853 | 22 | 9 | 4.8 | 6.4 | 0.00 | 0.05 | 0.05 | 69 | 1011.0 |
| 20260905184353 | 21 | 266 | 6.4 | 9.7 | 0.00 | 0.05 | 0.05 | 68 | 1010.8 |
| 20260905183851 | 22 | 38 | 4.8 | 12.9 | 0.00 | 0.05 | 0.05 | 69 | 1010.8 |
| 20260905183347 | 22 | 24 | 6.4 | 9.7 | 0.00 | 0.05 | 0.05 | 68 | 1011.0 |
| 20260905182841 | 21 | 304 | 3.2 | 4.8 | 0.00 | 0.05 | 0.05 | 71 | 1010.9 |
| 20260905182336 | 21 | 14 | 4.8 | 4.8 | 0.00 | 0.05 | 0.05 | 71 | 1011.0 |
| 20260905181832 | 20 | 17 | 8.0 | 11.3 | 0.00 | 0.05 | 0.05 | 74 | 1011.1 |
| 20260905181331 | 20 | 315 | 4.8 | 6.4 | 0.00 | 0.05 | 0.05 | 74 | 1011.0 |
| 20260905180830 | 20 | 17 | 0.0 | 1.6 | 0.00 | 0.05 | 0.05 | 76 | 1011.0 |
| 20260905180325 | 21 | 313 | 4.8 | 9.7 | 0.00 | 0.05 | 0.05 | 74 | 1011.0 |
| 20260905175820 | 21 | 76 | 8.0 | 12.9 | 0.00 | 0.05 | 0.05 | 74 | 1010.9 |
| 20260905175314 | 21 | 12 | 11.3 | 20.9 | 0.00 | 0.05 | 0.05 | 71 | 1011.1 |
| 20260905174810 | 21 | 52 | 1.6 | 1.6 | 0.00 | 0.05 | 0.05 | 76 | 1010.9 |
| 20260905174306 | 21 | 314 | 3.2 | 4.8 | 0.00 | 0.05 | 0.05 | 74 | 1011.0 |
| 20260905173801 | 20 | 94 | 3.2 | 4.8 | 0.00 | 0.05 | 0.05 | 74 | 1011.1 |
| 20260905173257 | 20 | 332 | 3.2 | 4.8 | 0.00 | 0.05 | 0.05 | 79 | 1011.3 |
| 20260905172757 | 20 | 353 | 4.8 | 4.8 | 0.00 | 0.05 | 0.05 | 80 | 1011.2 |
| 20260905172255 | 20 | 341 | 1.6 | 3.2 | 0.00 | 0.05 | 0.05 | 80 | 1011.2 |
| 20260905171752 | 20 | 289 | 1.6 | 3.2 | 0.00 | 0.05 | 0.05 | 79 | 1011.1 |
| 20260905171248 | 19 | 106 | 4.8 | 6.4 | 0.00 | 0.05 | 0.05 | 81 | 1011.2 |
| 20260905170744 | 19 | 298 | 1.6 | 3.2 | 0.00 | 0.05 | 0.05 | 82 | 1011.1 |
| 20260905170239 | 20 | 306 | 1.6 | 3.2 | 0.00 | 0.05 | 0.05 | 81 | 1011.1 |
| 20260905165738 | 21 | 49 | 6.4 | 6.4 | 0.00 | 0.05 | 0.05 | 78 | 1011.1 |
| 20260905165234 | 21 | 307 | 0.0 | 0.0 | 0.00 | 0.05 | 0.05 | 81 | 1011.0 |
| 20260905164728 | 20 | 232 | 3.2 | 4.8 | 0.00 | 0.05 | 0.05 | 80 | 1011.4 |
| 20260905164223 | 20 | 10 | 1.6 | 3.2 | 0.00 | 0.05 | 0.05 | 85 | 1011.2 |
| 20260905163719 | 20 | 334 | 1.6 | 1.6 | 0.00 | 0.05 | 0.05 | 89 | 1011.3 |
| 20260905163215 | 19 | 14 | 0.0 | 1.6 | 0.00 | 0.05 | 0.05 | 92 | 1011.2 |
| 20260905162710 | 18 | 77 | 4.8 | 4.8 | 0.00 | 0.05 | 0.05 | 93 | 1011.4 |
| 20260905162210 | 18 | 236 | 1.6 | 1.6 | 0.00 | 0.05 | 0.05 | 96 | 1011.3 |
| 20260905161659 | 17 | 357 | 0.0 | 0.0 | 0.00 | 0.05 | 0.05 | 97 | 1011.4 |
| 20260905161157 | 17 | 312 | 0.0 | 1.6 | 0.30 | 0.05 | 0.05 | 95 | 1011.4 |
| 20260905160651 | 19 | 39 | 3.2 | 6.4 | 0.30 | 0.05 | 0.05 | 90 | 1011.4 |
| 20260905160150 | 20 | 15 | 6.4 | 9.7 | 0.00 | 0.00 | 0.00 | 84 | 1011.1 |
| 20260905155644 | 20 | 281 | 6.4 | 9.7 | 0.00 | 0.00 | 0.00 | 83 | 1011.1 |
| 20260905155143 | 19 | 359 | 3.2 | 4.8 | 0.00 | 0.00 | 0.00 | 86 | 1011.1 |
| 20260905154638 | 19 | 4 | 1.6 | 1.6 | 0.00 | 0.00 | 0.00 | 87 | 1011.2 |
| 20260905154134 | 18 | 347 | 6.4 | 6.4 | 0.00 | 0.00 | 0.00 | 87 | 1011.1 |
| 20260905153629 | 18 | 298 | 4.8 | 4.8 | 0.00 | 0.00 | 0.00 | 88 | 1011.2 |
| 20260905153125 | 20 | 291 | 4.8 | 4.8 | 0.00 | 0.00 | 0.00 | 86 | 1011.1 |
| 20260905152620 | 19 | 74 | 4.8 | 6.4 | 0.00 | 0.00 | 0.00 | 84 | 1011.0 |
| 20260905152114 | 20 | 347 | 1.6 | 3.2 | 0.00 | 0.00 | 0.00 | 83 | 1011.0 |
| 20260905151609 | 20 | 333 | 1.6 | 3.2 | 0.00 | 0.00 | 0.00 | 82 | 1011.1 |
| 20260905151104 | 20 | 16 | 3.2 | 3.2 | 0.00 | 0.00 | 0.00 | 81 | 1011.0 |
| 20260905150600 | 19 | 359 | 1.6 | 3.2 | 0.00 | 0.00 | 0.00 | 85 | 1010.9 |
| 20260905150057 | 19 | 240 | 3.2 | 3.2 | 0.00 | 0.00 | 0.00 | 85 | 1011.1 |
| 20260905145551 | 19 | 68 | 3.2 | 4.8 | 0.00 | 0.00 | 0.00 | 85 | 1011.1 |
| 20260905145050 | 19 | 339 | 4.8 | 6.4 | 0.00 | 0.00 | 0.00 | 84 | 1011.0 |
| 20260905144545 | 19 | 7 | 3.2 | 4.8 | 0.00 | 0.00 | 0.00 | 84 | 1011.0 |
| 20260905144043 | 19 | 267 | 4.8 | 6.4 | 0.00 | 0.00 | 0.00 | 86 | 1011.0 |
| 20260905143538 | 19 | 7 | 1.6 | 3.2 | 0.00 | 0.00 | 0.00 | 86 | 1011.0 |
| 20260905143033 | 19 | 303 | 6.4 | 6.4 | 0.00 | 0.00 | 0.00 | 85 | 1010.8 |
| 20260905142531 | 19 | 79 | 6.4 | 9.7 | 0.00 | 0.00 | 0.00 | 85 | 1011.0 |
| 20260905142027 | 19 | 285 | 0.0 | 1.6 | 0.00 | 0.00 | 0.00 | 85 | 1010.8 |
| 20260905141521 | 18 | 18 | 9.7 | 12.9 | 0.00 | 0.00 | 0.00 | 86 | 1010.6 |
| 20260905141018 | 18 | 312 | 1.6 | 3.2 | 0.00 | 0.00 | 0.00 | 86 | 1010.6 |
| 20260905140513 | 18 | 344 | 3.2 | 3.2 | 0.00 | 0.00 | 0.00 | 88 | 1010.5 |
| 20260905140012 | 18 | 36 | 3.2 | 3.2 | 0.00 | 0.00 | 0.00 | 88 | 1010.5 |
| 20260905135508 | 18 | 275 | 0.0 | 0.0 | 0.00 | 0.00 | 0.00 | 90 | 1010.8 |
| 20260905135007 | 18 | 111 | 6.4 | 6.4 | 0.00 | 0.00 | 0.00 | 90 | 1010.4 |
| 20260905134502 | 18 | 337 | 3.2 | 4.8 | 0.00 | 0.00 | 0.00 | 87 | 1010.4 |
| 20260905134001 | 18 | 42 | 4.8 | 4.8 | 0.00 | 0.00 | 0.00 | 87 | 1010.5 |
| 20260905133455 | 18 | 11 | 4.8 | 6.4 | 0.00 | 0.00 | 0.00 | 87 | 1010.3 |
| 20260905132949 | 18 | 356 | 4.8 | 4.8 | 0.00 | 0.00 | 0.00 | 87 | 1010.3 |
| 20260905132445 | 18 | 311 | 3.2 | 4.8 | 0.00 | 0.00 | 0.00 | 88 | 1010.2 |
| 20260905131940 | 18 | 357 | 3.2 | 4.8 | 0.00 | 0.00 | 0.00 | 88 | 1010.1 |
| 20260905131436 | 18 | 73 | 4.8 | 9.7 | 0.00 | 0.00 | 0.00 | 89 | 1010.0 |
| 20260905130935 | 18 | 323 | 6.4 | 9.7 | 0.00 | 0.00 | 0.00 | 88 | 1010.1 |
| 20260905130429 | 18 | 303 | 3.2 | 6.4 | 0.00 | 0.00 | 0.00 | 88 | 1010.0 |
| 20260905125924 | 18 | 10 | 3.2 | 3.2 | 0.00 | 0.00 | 0.00 | 88 | 1010.0 |
| 20260905125419 | 18 | 307 | 1.6 | 3.2 | 0.00 | 0.00 | 0.00 | 89 | 1010.1 |
| 20260905124914 | 18 | 21 | 12.9 | 20.9 | 0.00 | 0.00 | 0.00 | 88 | 1010.0 |
| 20260905124410 | 18 | 33 | 4.8 | 9.7 | 0.00 | 0.00 | 0.00 | 87 | 1010.0 |
| 20260905123910 | 18 | 316 | 3.2 | 3.2 | 0.00 | 0.00 | 0.00 | 89 | 1009.8 |
| 20260905123407 | 18 | 27 | 1.6 | 1.6 | 0.00 | 0.00 | 0.00 | 90 | 1010.0 |
| 20260905122902 | 18 | 30 | 4.8 | 6.4 | 0.00 | 0.00 | 0.00 | 90 | 1009.8 |
| 20260905122400 | 17 | 355 | 1.6 | 1.6 | 0.00 | 0.00 | 0.00 | 92 | 1009.9 |
| 20260905121856 | 17 | 317 | 0.0 | 1.6 | 0.00 | 0.00 | 0.00 | 93 | 1009.7 |
| 20260905121352 | 17 | 309 | 0.0 | 0.0 | 0.00 | 0.00 | 0.00 | 94 | 1009.9 |
| 20260905120851 | 17 | 46 | 0.0 | 1.6 | 0.00 | 0.00 | 0.00 | 95 | 1009.8 |
| 20260905120346 | 17 | 6 | 1.6 | 3.2 | 0.00 | 0.00 | 0.00 | 94 | 1009.7 |
| 20260905115842 | 17 | 33 | 0.0 | 1.6 | 0.00 | 0.00 | 0.00 | 94 | 1009.8 |
| 20260905115340 | 17 | 320 | 0.0 | 0.0 | 0.00 | 0.00 | 0.00 | 95 | 1009.7 |
| 20260905114835 | 17 | 227 | 1.6 | 1.6 | 0.00 | 0.00 | 0.00 | 95 | 1009.6 |
| 20260905114334 | 16 | 25 | 3.2 | 4.8 | 0.00 | 0.00 | 0.00 | 95 | 1009.7 |
| 20260905113834 | 16 | 33 | 1.6 | 3.2 | 0.00 | 0.00 | 0.00 | 96 | 1009.7 |
| 20260905113330 | 16 | 50 | 1.6 | 1.6 | 0.00 | 0.00 | 0.00 | 97 | 1009.8 |
| 20260905112825 | 16 | 84 | 0.0 | 0.0 | 0.00 | 0.00 | 0.00 | 97 | 1009.8 |
| 20260905112320 | 16 | 332 | 0.0 | 0.0 | 0.00 | 0.00 | 0.00 | 98 | 1009.6 |
| 20260905111815 | 16 | 65 | 3.2 | 3.2 | 0.00 | 0.00 | 0.00 | 98 | 1009.5 |
| 20260905111309 | 16 | 311 | 0.0 | 0.0 | 0.00 | 0.00 | 0.00 | 99 | 1009.6 |
| 20260905110808 | 15 | 319 | 0.0 | 0.0 | 0.00 | 0.00 | 0.00 | 99 | 1009.4 |
| 20260905110302 | 15 | 319 | 0.0 | 0.0 | 0.00 | 0.00 | 0.00 | 99 | 1009.4 |
| 20260905105758 | 15 | 293 | 0.0 | 0.0 | 0.00 | 0.00 | 0.00 | 99 | 1009.5 |
| 20260905105257 | 15 | 289 | 0.0 | 0.0 | 0.00 | 0.00 | 0.00 | 99 | 1009.5 |
| 20260905104751 | 15 | 308 | 0.0 | 0.0 | 0.00 | 0.00 | 0.00 | 99 | 1009.5 |
| 20260905104248 | 15 | 311 | 0.0 | 0.0 | 0.00 | 0.00 | 0.00 | 99 | 1009.2 |
| 20260905103747 | 15 | 318 | 0.0 | 0.0 | 0.00 | 0.00 | 0.00 | 99 | 1009.1 |
| 20260905103243 | 15 | 316 | 0.0 | 0.0 | 0.00 | 0.00 | 0.00 | 99 | 1009.1 |
| 20260905102739 | 15 | 313 | 0.0 | 0.0 | 0.00 | 0.00 | 0.00 | 99 | 1009.0 |
| 20260905102235 | 15 | 317 | 0.0 | 0.0 | 0.00 | 0.00 | 0.00 | 99 | 1008.9 |
| 20260905101734 | 15 | 328 | 0.0 | 0.0 | 0.00 | 0.00 | 0.00 | 99 | 1008.8 |
| 20260905101233 | 15 | 338 | 0.0 | 1.6 | 0.00 | 0.00 | 0.00 | 99 | 1008.9 |
| 20260905100728 | 15 | 315 | 0.0 | 0.0 | 0.00 | 0.00 | 0.00 | 99 | 1008.9 |
| 20260905100223 | 14 | 317 | 0.0 | 1.6 | 0.00 | 0.00 | 0.00 | 99 | 1008.9 |
| 20260905095718 | 13 | 312 | 0.0 | 0.0 | 0.00 | 0.00 | 0.00 | 99 | 1008.9 |
| 20260905095218 | 14 | 300 | 0.0 | 0.0 | 0.00 | 0.00 | 0.00 | 99 | 1008.8 |
| 20260905094713 | 14 | 302 | 0.0 | 0.0 | 0.00 | 0.00 | 0.00 | 99 | 1008.7 |
| 20260905094213 | 14 | 301 | 0.0 | 0.0 | 0.00 | 0.00 | 0.00 | 99 | 1008.9 |
| 20260905093707 | 14 | 296 | 0.0 | 0.0 | 0.00 | 0.00 | 0.00 | 99 | 1008.7 |
| 20260905093204 | 14 | 304 | 0.0 | 0.0 | 0.00 | 0.00 | 0.00 | 99 | 1008.7 |
| 20260905092658 | 14 | 304 | 0.0 | 0.0 | 0.00 | 0.00 | 0.00 | 99 | 1008.5 |
| 20260905092153 | 14 | 301 | 0.0 | 0.0 | 0.00 | 0.00 | 0.00 | 99 | 1008.5 |
| 20260905091648 | 14 | 300 | 0.0 | 0.0 | 0.00 | 0.00 | 0.00 | 99 | 1008.7 |
| 20260905091147 | 14 | 298 | 0.0 | 0.0 | 0.00 | 0.00 | 0.00 | 99 | 1008.7 |
| 20260905090642 | 14 | 309 | 0.0 | 0.0 | 0.00 | 0.00 | 0.00 | 99 | 1008.7 |
| 20260905090138 | 14 | 311 | 0.0 | 0.0 | 0.00 | 0.00 | 0.00 | 99 | 1008.4 |
| 20260905085636 | 14 | 296 | 0.0 | 0.0 | 0.00 | 0.00 | 0.00 | 99 | 1008.6 |
| 20260905085132 | 14 | 310 | 0.0 | 0.0 | 0.00 | 0.00 | 0.00 | 99 | 1008.5 |
| 20260905084631 | 13 | 320 | 0.0 | 0.0 | 0.00 | 0.00 | 0.00 | 99 | 1008.4 |
| 20260905084126 | 14 | 318 | 0.0 | 0.0 | 0.00 | 0.00 | 0.00 | 99 | 1008.5 |
| 20260905083621 | 13 | 313 | 0.0 | 0.0 | 0.00 | 0.00 | 0.00 | 99 | 1008.2 |
| 20260905083117 | 13 | 306 | 0.0 | 0.0 | 0.00 | 0.00 | 0.00 | 99 | 1008.1 |
| 20260905082612 | 14 | 315 | 0.0 | 0.0 | 0.00 | 0.00 | 0.00 | 99 | 1008.2 |
| 20260905082108 | 14 | 333 | 0.0 | 0.0 | 0.00 | 0.00 | 0.00 | 99 | 1008.2 |
| 20260905081607 | 14 | 314 | 0.0 | 0.0 | 0.00 | 0.00 | 0.00 | 99 | 1008.1 |
| 20260905081057 | 14 | 313 | 0.0 | 0.0 | 0.00 | 0.00 | 0.00 | 99 | 1008.3 |
| 20260905080557 | 13 | 320 | 0.0 | 0.0 | 0.00 | 0.00 | 0.00 | 99 | 1008.1 |
| 20260905080051 | 14 | 317 | 0.0 | 0.0 | 0.00 | 0.00 | 0.00 | 99 | 1008.0 |
| 20260905075544 | 14 | 318 | 0.0 | 0.0 | 0.00 | 0.00 | 0.00 | 99 | 1008.0 |
| 20260905075038 | 14 | 343 | 0.0 | 0.0 | 0.00 | 0.00 | 0.00 | 99 | 1008.0 |
| 20260905074532 | 14 | 356 | 1.6 | 1.6 | 0.00 | 0.00 | 0.00 | 99 | 1008.1 |
| 20260905074028 | 15 | 31 | 1.6 | 1.6 | 0.00 | 0.00 | 0.00 | 99 | 1008.1 |
| 20260905073523 | 15 | 339 | 0.0 | 0.0 | 0.00 | 0.00 | 0.00 | 99 | 1007.9 |
| 20260905073019 | 15 | 342 | 0.0 | 0.0 | 0.00 | 0.00 | 0.00 | 99 | 1007.9 |
| 20260905072518 | 15 | 333 | 0.0 | 0.0 | 0.00 | 0.00 | 0.00 | 99 | 1008.1 |
| 20260905072014 | 15 | 338 | 0.0 | 0.0 | 0.00 | 0.00 | 0.00 | 99 | 1008.1 |
| 20260905071511 | 15 | 313 | 0.0 | 0.0 | 0.00 | 0.00 | 0.00 | 98 | 1008.1 |
| 20260905071011 | 16 | 322 | 0.0 | 0.0 | 0.00 | 0.00 | 0.00 | 99 | 1008.1 |
| 20260905070507 | 15 | 324 | 0.0 | 1.6 | 0.00 | 0.00 | 0.00 | 99 | 1008.0 |
| 20260905070002 | 15 | 311 | 0.0 | 0.0 | 0.00 | 0.00 | 0.00 | 99 | 1008.2 |
| 20260905065500 | 15 | 340 | 0.0 | 0.0 | 0.00 | 0.00 | 0.00 | 99 | 1008.4 |
| 20260905064955 | 15 | 294 | 0.0 | 0.0 | 0.00 | 0.00 | 0.00 | 99 | 1008.3 |
| 20260905064450 | 15 | 319 | 0.0 | 0.0 | 0.00 | 0.00 | 0.00 | 99 | 1008.4 |
| 20260905063945 | 15 | 307 | 0.0 | 0.0 | 0.00 | 0.00 | 0.00 | 99 | 1008.3 |
| 20260905063439 | 15 | 344 | 0.0 | 0.0 | 0.00 | 0.00 | 0.00 | 99 | 1008.4 |
| 20260905062935 | 15 | 310 | 0.0 | 0.0 | 0.00 | 0.00 | 0.00 | 99 | 1008.4 |
| 20260905062429 | 14 | 292 | 0.0 | 0.0 | 0.00 | 0.00 | 0.00 | 99 | 1008.1 |
| 20260905061924 | 15 | 318 | 0.0 | 0.0 | 0.00 | 0.00 | 0.00 | 99 | 1008.3 |
| 20260905061419 | 15 | 313 | 0.0 | 0.0 | 0.00 | 0.00 | 0.00 | 99 | 1008.2 |
| 20260905060918 | 15 | 325 | 0.0 | 0.0 | 0.00 | 0.00 | 0.00 | 99 | 1008.2 |
| 20260905060415 | 15 | 339 | 0.0 | 1.6 | 0.00 | 0.00 | 0.00 | 99 | 1008.3 |
| 20260905055914 | 15 | 330 | 0.0 | 0.0 | 0.00 | 0.00 | 0.00 | 99 | 1008.2 |
| 20260905055410 | 15 | 298 | 0.0 | 0.0 | 0.00 | 0.00 | 0.00 | 99 | 1008.3 |
| 20260905054908 | 15 | 284 | 0.0 | 0.0 | 0.00 | 0.00 | 0.00 | 99 | 1008.4 |
| 20260905054405 | 15 | 319 | 0.0 | 0.0 | 0.00 | 0.00 | 0.00 | 99 | 1008.4 |
| 20260905053904 | 15 | 307 | 0.0 | 0.0 | 0.00 | 0.00 | 0.00 | 99 | 1008.4 |
| 20260905053359 | 15 | 302 | 0.0 | 0.0 | 0.00 | 0.00 | 0.00 | 99 | 1008.3 |
| 20260905052855 | 15 | 320 | 0.0 | 0.0 | 0.00 | 0.00 | 0.00 | 99 | 1008.3 |
| 20260905052354 | 15 | 324 | 0.0 | 0.0 | 0.00 | 0.00 | 0.00 | 99 | 1008.5 |
| 20260905051854 | 15 | 321 | 0.0 | 0.0 | 0.00 | 0.00 | 0.00 | 99 | 1008.5 |
| 20260905051350 | 14 | 307 | 0.0 | 0.0 | 0.00 | 0.00 | 0.00 | 99 | 1008.5 |
| 20260905050847 | 15 | 308 | 0.0 | 0.0 | 0.00 | 0.00 | 0.00 | 99 | 1008.4 |
| 20260905050343 | 15 | 312 | 0.0 | 0.0 | 0.00 | 0.00 | 0.00 | 99 | 1008.5 |
| 20260905045842 | 15 | 312 | 0.0 | 0.0 | 0.00 | 0.00 | 0.00 | 99 | 1008.5 |
| 20260905045338 | 15 | 318 | 0.0 | 0.0 | 0.00 | 0.00 | 0.00 | 99 | 1008.3 |
| 20260905044833 | 15 | 304 | 0.0 | 0.0 | 0.00 | 0.00 | 0.00 | 99 | 1008.3 |
| 20260905044328 | 15 | 298 | 0.0 | 0.0 | 0.00 | 0.00 | 0.00 | 99 | 1008.3 |
| 20260905043827 | 15 | 291 | 0.0 | 0.0 | 0.00 | 0.00 | 0.00 | 99 | 1008.4 |
| 20260905043322 | 15 | 306 | 0.0 | 0.0 | 0.00 | 0.00 | 0.00 | 99 | 1008.4 |
| 20260905042817 | 15 | 290 | 0.0 | 0.0 | 0.00 | 0.00 | 0.00 | 99 | 1008.3 |
| 20260905042317 | 15 | 291 | 0.0 | 0.0 | 0.00 | 0.00 | 0.00 | 99 | 1008.3 |
| 20260905041812 | 15 | 287 | 0.0 | 0.0 | 0.00 | 0.00 | 0.00 | 99 | 1008.4 |
| 20260905041308 | 15 | 290 | 0.0 | 0.0 | 0.00 | 0.00 | 0.00 | 99 | 1008.4 |
| 20260905040803 | 15 | 291 | 0.0 | 0.0 | 0.00 | 0.00 | 0.00 | 99 | 1008.6 |
| 20260905040301 | 15 | 304 | 0.0 | 0.0 | 0.00 | 0.00 | 0.00 | 99 | 1008.5 |
| 20260905035756 | 15 | 294 | 0.0 | 0.0 | 0.00 | 0.03 | 0.03 | 99 | 1008.4 |
| 20260905035252 | 15 | 289 | 0.0 | 0.0 | 0.00 | 0.03 | 0.03 | 99 | 1008.5 |
| 20260905034749 | 15 | 290 | 0.0 | 0.0 | 0.00 | 0.03 | 0.03 | 99 | 1008.5 |
| 20260905034249 | 15 | 303 | 0.0 | 0.0 | 0.00 | 0.03 | 0.03 | 99 | 1008.4 |
| 20260905033747 | 15 | 302 | 0.0 | 0.0 | 0.00 | 0.03 | 0.03 | 99 | 1008.6 |
| 20260905033243 | 15 | 303 | 0.0 | 0.0 | 0.00 | 0.03 | 0.03 | 99 | 1008.5 |
| 20260905032742 | 15 | 321 | 0.0 | 0.0 | 0.00 | 0.03 | 0.03 | 99 | 1008.5 |
| 20260905032238 | 15 | 307 | 0.0 | 0.0 | 0.00 | 0.03 | 0.03 | 98 | 1008.5 |
| 20260905031732 | 16 | 323 | 0.0 | 0.0 | 0.00 | 0.03 | 0.03 | 99 | 1008.7 |
| 20260905031229 | 16 | 307 | 0.0 | 0.0 | 0.00 | 0.03 | 0.03 | 98 | 1008.6 |
| 20260905030724 | 16 | 301 | 0.0 | 0.0 | 0.00 | 0.03 | 0.03 | 97 | 1008.7 |
| 20260905030218 | 16 | 299 | 0.0 | 0.0 | 0.00 | 0.03 | 0.03 | 97 | 1008.8 |
| 20260905025713 | 16 | 309 | 0.0 | 0.0 | 0.00 | 0.03 | 0.03 | 97 | 1008.8 |
| 20260905025209 | 16 | 312 | 0.0 | 0.0 | 0.00 | 0.03 | 0.03 | 96 | 1008.8 |
| 20260905024704 | 16 | 296 | 0.0 | 0.0 | 0.00 | 0.03 | 0.03 | 97 | 1008.7 |
| 20260905024200 | 16 | 312 | 0.0 | 0.0 | 0.00 | 0.03 | 0.03 | 95 | 1008.6 |
| 20260905023654 | 16 | 303 | 0.0 | 0.0 | 0.00 | 0.03 | 0.03 | 95 | 1008.7 |
| 20260905023149 | 17 | 309 | 0.0 | 0.0 | 0.00 | 0.03 | 0.03 | 94 | 1008.7 |
| 20260905022648 | 17 | 299 | 0.0 | 0.0 | 0.00 | 0.03 | 0.03 | 94 | 1008.7 |
| 20260905022144 | 17 | 304 | 0.0 | 0.0 | 0.00 | 0.03 | 0.03 | 93 | 1008.8 |
| 20260905021643 | 17 | 332 | 0.0 | 0.0 | 0.00 | 0.03 | 0.03 | 92 | 1008.8 |
| 20260905021139 | 18 | 315 | 0.0 | 0.0 | 0.00 | 0.03 | 0.03 | 90 | 1008.7 |
| 20260905020639 | 18 | 295 | 0.0 | 0.0 | 0.00 | 0.03 | 0.03 | 88 | 1008.7 |
| 20260905020134 | 18 | 302 | 0.0 | 0.0 | 0.00 | 0.03 | 0.03 | 87 | 1008.8 |
| 20260905015627 | 18 | 303 | 0.0 | 0.0 | 0.00 | 0.03 | 0.03 | 86 | 1008.8 |
| 20260905015121 | 18 | 354 | 0.0 | 0.0 | 0.00 | 0.03 | 0.03 | 86 | 1009.0 |
| 20260905014615 | 19 | 305 | 0.0 | 0.0 | 0.00 | 0.03 | 0.03 | 86 | 1009.0 |
| 20260905014111 | 19 | 307 | 0.0 | 0.0 | 0.00 | 0.03 | 0.03 | 85 | 1008.8 |
| 20260905013602 | 19 | 275 | 0.0 | 0.0 | 0.00 | 0.03 | 0.03 | 84 | 1008.9 |
| 20260905013057 | 20 | 298 | 0.0 | 0.0 | 0.00 | 0.03 | 0.03 | 83 | 1008.9 |
| 20260905012556 | 20 | 287 | 0.0 | 0.0 | 0.00 | 0.03 | 0.03 | 82 | 1008.9 |
| 20260905012054 | 20 | 308 | 0.0 | 0.0 | 0.00 | 0.03 | 0.03 | 83 | 1008.9 |
| 20260905011549 | 20 | 298 | 0.0 | 0.0 | 0.00 | 0.03 | 0.03 | 81 | 1008.8 |
| 20260905011044 | 20 | 297 | 0.0 | 0.0 | 0.00 | 0.03 | 0.03 | 80 | 1008.9 |
| 20260905010539 | 20 | 313 | 0.0 | 0.0 | 0.00 | 0.03 | 0.03 | 79 | 1008.8 |
| 20260905010036 | 20 | 300 | 0.0 | 0.0 | 0.00 | 0.03 | 0.03 | 79 | 1008.8 |
| 20260905005531 | 20 | 289 | 0.0 | 0.0 | 0.00 | 0.03 | 0.03 | 79 | 1008.7 |
| 20260905005026 | 20 | 291 | 0.0 | 0.0 | 0.00 | 0.03 | 0.03 | 78 | 1008.8 |
| 20260905004521 | 20 | 305 | 0.0 | 0.0 | 0.00 | 0.03 | 0.03 | 78 | 1008.8 |
| 20260905004016 | 20 | 275 | 1.6 | 1.6 | 0.00 | 0.03 | 0.03 | 78 | 1008.8 |
| 20260905003512 | 20 | 307 | 0.0 | 1.6 | 0.00 | 0.03 | 0.03 | 79 | 1008.7 |
| 20260905003007 | 21 | 261 | 3.2 | 3.2 | 0.00 | 0.03 | 0.03 | 77 | 1008.8 |
| 20260905002502 | 21 | 276 | 3.2 | 3.2 | 0.00 | 0.03 | 0.03 | 75 | 1009.0 |
| 20260905001956 | 21 | 317 | 1.6 | 1.6 | 0.00 | 0.03 | 0.03 | 75 | 1008.9 |
| 20260905001451 | 21 | 290 | 0.0 | 0.0 | 0.00 | 0.03 | 0.03 | 75 | 1008.7 |
| 20260905000945 | 21 | 302 | 0.0 | 0.0 | 0.00 | 0.03 | 0.03 | 75 | 1008.7 |
| 20260905000441 | 21 | 354 | 3.2 | 4.8 | 0.00 | 0.03 | 0.03 | 76 | 1008.7 |
| 20260904235936 | 21 | 19 | 0.0 | 1.6 | 0.00 | 0.03 | 0.03 | 78 | 1008.8 |
| 20260904235432 | 21 | 318 | 1.6 | 1.6 | 0.00 | 0.03 | 0.03 | 77 | 1008.7 |
| 20260904234931 | 21 | 298 | 0.0 | 0.0 | 0.00 | 0.03 | 0.03 | 78 | 1008.5 |
| 20260904234426 | 21 | 288 | 0.0 | 0.0 | 0.00 | 0.03 | 0.03 | 78 | 1008.5 |
| 20260904233922 | 21 | 303 | 0.0 | 0.0 | 0.00 | 0.03 | 0.03 | 77 | 1008.5 |
| 20260904233417 | 21 | 322 | 0.0 | 0.0 | 0.00 | 0.03 | 0.03 | 78 | 1008.3 |
| 20260904232914 | 21 | 332 | 0.0 | 0.0 | 0.00 | 0.03 | 0.03 | 76 | 1008.3 |
| 20260904232410 | 21 | 301 | 0.0 | 0.0 | 0.00 | 0.03 | 0.03 | 76 | 1008.4 |
| 20260904231906 | 22 | 326 | 0.0 | 1.6 | 0.00 | 0.03 | 0.03 | 74 | 1008.3 |
| 20260904231401 | 22 | 303 | 0.0 | 0.0 | 0.00 | 0.03 | 0.03 | 73 | 1008.3 |
| 20260904230855 | 22 | 329 | 0.0 | 1.6 | 0.00 | 0.03 | 0.03 | 72 | 1008.4 |
| 20260904230354 | 22 | 304 | 0.0 | 0.0 | 0.00 | 0.03 | 0.03 | 71 | 1008.2 |
| 20260904225850 | 22 | 302 | 0.0 | 0.0 | 0.00 | 0.03 | 0.03 | 70 | 1008.3 |
| 20260904225348 | 22 | 26 | 1.6 | 1.6 | 0.00 | 0.03 | 0.03 | 70 | 1008.4 |
| 20260904224848 | 22 | 301 | 3.2 | 3.2 | 0.00 | 0.03 | 0.03 | 70 | 1008.3 |
| 20260904224343 | 22 | 298 | 0.0 | 0.0 | 0.00 | 0.03 | 0.03 | 69 | 1008.4 |
| 20260904223842 | 22 | 291 | 0.0 | 1.6 | 0.00 | 0.03 | 0.03 | 69 | 1008.2 |
| 20260904223337 | 23 | 301 | 0.0 | 0.0 | 0.00 | 0.03 | 0.03 | 69 | 1008.1 |
| 20260904222834 | 23 | 313 | 0.0 | 0.0 | 0.00 | 0.03 | 0.03 | 68 | 1008.3 |
| 20260904222333 | 23 | 326 | 1.6 | 1.6 | 0.00 | 0.03 | 0.03 | 67 | 1008.2 |
| 20260904221827 | 23 | 300 | 1.6 | 3.2 | 0.00 | 0.03 | 0.03 | 67 | 1008.2 |
| 20260904221322 | 23 | 262 | 3.2 | 4.8 | 0.00 | 0.03 | 0.03 | 68 | 1008.2 |
| 20260904220818 | 23 | 76 | 3.2 | 4.8 | 0.00 | 0.03 | 0.03 | 69 | 1008.3 |
| 20260904220317 | 23 | 282 | 4.8 | 6.4 | 0.00 | 0.03 | 0.03 | 71 | 1008.4 |
| 20260904215812 | 23 | 312 | 0.0 | 0.0 | 0.00 | 0.03 | 0.03 | 71 | 1008.3 |
| 20260904215307 | 23 | 283 | 0.0 | 1.6 | 0.00 | 0.03 | 0.03 | 70 | 1008.4 |
| 20260904214803 | 23 | 306 | 0.0 | 0.0 | 0.00 | 0.03 | 0.03 | 69 | 1008.1 |
| 20260904214259 | 23 | 281 | 0.0 | 0.0 | 0.00 | 0.03 | 0.03 | 68 | 1008.3 |
| 20260904213756 | 24 | 300 | 3.2 | 3.2 | 0.00 | 0.03 | 0.03 | 68 | 1008.1 |
| 20260904213252 | 24 | 291 | 0.0 | 0.0 | 0.00 | 0.03 | 0.03 | 67 | 1008.2 |
| 20260904212748 | 25 | 64 | 4.8 | 4.8 | 0.00 | 0.03 | 0.03 | 64 | 1008.1 |
| 20260904212242 | 25 | 260 | 1.6 | 3.2 | 0.00 | 0.03 | 0.03 | 64 | 1008.3 |